Location: Hains Lake
(37.8540°N, 99.8578°W)
Time: 02:10:17
(UTC+00:00)

Vanguard 1 - Pass Details

Date: 04 December 2021
Orbit: 652 x 3830 km, 34.2° (Epoch: 21 January)

Event Time Altitude Azimuth Distance (km) Brightness Sun altitude
Exits shadow 09:54:24 72° 239° (WSW) 3,556 12.4 -43.7°
Maximum altitude 09:57:03 78° 189° (S) 3,364 12.4 -43.2°
Drops below altitude 10° 10:12:45 10° 106° (ESE) 4,898 14.2 -40.1°
Sets 10:15:45 0° 105° (ESE) 5,568 14.8 -39.5°
